Satellite: ORSTED
Catalog number: 25635
Epoch time:      103021.96496313
Element set:     813 
Inclination:       96.4477 deg
RA of node:        14.8107 deg
Eccentricity:    0.0146734
Arg of perigee:    56.9988 deg
Mean anomaly:     304.5206 deg
Mean motion:   14.44785223 rev/day
Decay rate:    9.5400E-006 rev/day^2
Epoch rev:           20595
Checksum:              320

Satellite: SUNSAT
Catalog number: 25636
Epoch time:      103021.97956670
Element set:     662 
Inclination:       96.4512 deg
RA of node:        13.5355 deg
Eccentricity:    0.0150644
Arg of perigee:    63.0101 deg
Mean anomaly:     298.6385 deg
Mean motion:   14.42926346 rev/day
Decay rate:    4.6899E-006 rev/day^2
Epoch rev:           20583
Checksum:              320

Satellite: UOSAT 12
Catalog number: 25693
Epoch time:      103022.52300708
Element set:     634 
Inclination:       64.5603 deg
RA of node:        93.5653 deg
Eccentricity:    0.0017866
Arg of perigee:   317.3174 deg
Mean anomaly:      42.6540 deg
Mean motion:   14.76357064 rev/day
Decay rate:    4.3199E-006 rev/day^2
Epoch rev:           20226
Checksum:              298

Satellite: FENGYUN 1C
Catalog number: 25730
Epoch time:      103022.22463791
Element set:     748 
Inclination:       98.6353 deg
RA of node:        47.6505 deg
Eccentricity:    0.0015408
Arg of perigee:    81.7622 deg
Mean anomaly:     278.5296 deg
Mean motion:   14.11731594 rev/day
Decay rate:    7.4000E-007 rev/day^2
Epoch rev:           19077
Checksum:              308

Satellite: ASTRA 1H
Catalog number: 25785
Epoch time:      103013.00000000
Element set:     368 
Inclination:        0.0122 deg
RA of node:       319.8851 deg
Eccentricity:    0.0002995
Arg of perigee:    65.1991 deg
Mean anomaly:     106.1621 deg
Mean motion:    1.00273184 rev/day
Decay rate:    1.3899E-006 rev/day^2
Epoch rev:            1313
Checksum:              244

Satellite: TERRA
Catalog number: 25994
Epoch time:      103022.25702592
Element set:     626 
Inclination:       98.2049 deg
RA of node:        98.8954 deg
Eccentricity:    0.0001019
Arg of perigee:    85.8083 deg
Mean anomaly:     274.3242 deg
Mean motion:   14.57100168 rev/day
Decay rate:    6.8099E-006 rev/day^2
Epoch rev:           16469
Checksum:              330

Satellite: JAWSAT
Catalog number: 26061
Epoch time:      103021.88302735
Element set:     746 
Inclination:      100.2112 deg
RA of node:        73.8072 deg
Eccentricity:    0.0035156
Arg of perigee:   358.5450 deg
Mean anomaly:       1.5621 deg
Mean motion:   14.37793311 rev/day
Decay rate:    7.8100E-006 rev/day^2
Epoch rev:           15655
Checksum:              264

Satellite: OPAL
Catalog number: 26063
Epoch time:      103021.67482553
Element set:     703 
Inclination:      100.2161 deg
RA of node:        71.1875 deg
Eccentricity:    0.0037344
Arg of perigee:     5.6692 deg
Mean anomaly:     354.4897 deg
Mean motion:   14.35469828 rev/day
Decay rate:    2.3800E-006 rev/day^2
Epoch rev:           15638
Checksum:              302

Satellite: ASUSAT
Catalog number: 26065
Epoch time:      103022.18982571
Element set:     714 
Inclination:      100.2158 deg
RA of node:        71.9396 deg
Eccentricity:    0.0037427
Arg of perigee:     5.6993 deg
Mean anomaly:     354.4605 deg
Mean motion:   14.35496707 rev/day
Decay rate:    2.7500E-006 rev/day^2
Epoch rev:           15645
Checksum:              308

Satellite: GOES 11
Catalog number: 26352
Epoch time:      103021.14478063
Element set:     986 
Inclination:        0.0738 deg
RA of node:       109.1473 deg
Eccentricity:    0.0004527
Arg of perigee:   168.1586 deg
Mean anomaly:     142.3265 deg
Mean motion:    1.00262464 rev/day
Decay rate:   -3.3000E-007 rev/day^2
Epoch rev:             995
Checksum:              379

Satellite: EUTELSAT W4
Catalog number: 26369
Epoch time:      103021.91067131
Element set:     343 
Inclination:        0.0461 deg
RA of node:        33.8962 deg
Eccentricity:    0.0006364
Arg of perigee:   264.3051 deg
Mean anomaly:     186.5523 deg
Mean motion:    1.00273737 rev/day
Decay rate:    1.6100E-006 rev/day^2
Epoch rev:             977
Checksum:              262

Satellite: FENGYUN 2B
Catalog number: 26382
Epoch time:      103021.23609307
Element set:     773 
Inclination:        0.6368 deg
RA of node:       287.1588 deg
Eccentricity:    0.0000407
Arg of perigee:   147.3618 deg
Mean anomaly:     234.9197 deg
Mean motion:    1.00262670 rev/day
Decay rate:   -3.2099E-006 rev/day^2
Epoch rev:             942
Checksum:              293

Satellite: EUTELSAT W1
Catalog number: 26487
Epoch time:      103019.89353010
Element set:     345 
Inclination:        0.0166 deg
RA of node:        80.1752 deg
Eccentricity:    0.0003955
Arg of perigee:   205.6248 deg
Mean anomaly:     164.6935 deg
Mean motion:    1.00272665 rev/day
Decay rate:    7.6999E-007 rev/day^2
Epoch rev:             872
Checksum:              410

Satellite: ASTRA 2B
Catalog number: 26494
Epoch time:      103013.00000000
Element set:     251 
Inclination:        0.0178 deg
RA of node:       354.5658 deg
Eccentricity:    0.0005000
Arg of perigee:   302.8402 deg
Mean anomaly:     202.8287 deg
Mean motion:    1.00276704 rev/day
Decay rate:    1.6899E-006 rev/day^2
Epoch rev:             855
Checksum:              240

Satellite: NOAA 16
Catalog number: 26536
Epoch time:      103021.80238780
Element set:     175 
Inclination:       98.9001 deg
RA of node:       330.2967 deg
Eccentricity:    0.0011122
Arg of perigee:    28.3978 deg
Mean anomaly:     331.7788 deg
Mean motion:   14.11887450 rev/day
Decay rate:    8.4999E-007 rev/day^2
Epoch rev:           12023
Checksum:              323

Satellite: SAUDISAT 1A
Catalog number: 26545
Epoch time:      103022.09229529
Element set:     401 
Inclination:       64.5591 deg
RA of node:       116.3684 deg
Eccentricity:    0.0053897
Arg of perigee:   243.0915 deg
Mean anomaly:     116.4702 deg
Mean motion:   14.78906903 rev/day
Decay rate:    1.8410E-005 rev/day^2
Epoch rev:           12515
Checksum:              298

Satellite: UNISAT
Catalog number: 26547
Epoch time:      103021.75453111
Element set:     420 
Inclination:       64.5571 deg
RA of node:       119.7453 deg
Eccentricity:    0.0060933
Arg of perigee:   245.6901 deg
Mean anomaly:     113.7846 deg
Mean motion:   14.79621747 rev/day
Decay rate:    3.0080E-005 rev/day^2
Epoch rev:           12507
Checksum:              287

Satellite: TIUNGSAT 1
Catalog number: 26548
Epoch time:      103021.61694540
Element set:     406 
Inclination:       64.5579 deg
RA of node:       111.0280 deg
Eccentricity:    0.0046978
Arg of perigee:   242.6111 deg
Mean anomaly:     117.0179 deg
Mean motion:   14.81172711 rev/day
Decay rate:    2.2379E-005 rev/day^2
Epoch rev:           12523
Checksum:              285

Satellite: SAUDISAT 1B
Catalog number: 26549
Epoch time:      103022.37933080
Element set:     672 
Inclination:       64.5503 deg
RA of node:       119.4575 deg
Eccentricity:    0.0058251
Arg of perigee:   243.3032 deg
Mean anomaly:     116.2088 deg
Mean motion:   14.77848532 rev/day
Decay rate:    1.7950E-005 rev/day^2
Epoch rev:           12512
Checksum:              296

Satellite: AMSAT OSCAR 40
Catalog number: 26609
Epoch time:      103018.40123252
Element set:     305 
Inclination:        7.9708 deg
RA of node:        69.8773 deg
Eccentricity:    0.7935358
Arg of perigee:   134.4243 deg
Mean anomaly:     325.7472 deg
Mean motion:    1.25596623 rev/day
Decay rate:   -1.1000E-007 rev/day^2
Epoch rev:            1019
Checksum:              372

Satellite: GOES 12
Catalog number: 26871
Epoch time:      103021.29534620
Element set:     783 
Inclination:        0.3924 deg
RA of node:       277.2459 deg
Eccentricity:    0.0004193
Arg of perigee:   352.5224 deg
Mean anomaly:     212.9926 deg
Mean motion:    1.00363683 rev/day
Decay rate:   -1.0500E-006 rev/day^2
Epoch rev:             555
Checksum:              381

Satellite: PCSAT
Catalog number: 26931
Epoch time:      103021.95128415
Element set:     402 
Inclination:       67.0479 deg
RA of node:       326.7113 deg
Eccentricity:    0.0005238
Arg of perigee:   259.6058 deg
Mean anomaly:     100.4444 deg
Mean motion:   14.29100540 rev/day
Decay rate:    3.1600E-006 rev/day^2
Epoch rev:            6840
Checksum:              370

Satellite: SAPPHIRE
Catalog number: 26932
Epoch time:      103022.21272428
Element set:     377 
Inclination:       67.0580 deg
RA of node:       325.7482 deg
Eccentricity:    0.0005837
Arg of perigee:   242.4423 deg
Mean anomaly:     117.6082 deg
Mean motion:   14.29283859 rev/day
Decay rate:    1.9399E-006 rev/day^2
Epoch rev:            6846
Checksum:              322

Satellite: ENVISAT
Catalog number: 27386
Epoch time:      103022.43930043
Element set:     868 
Inclination:       98.5487 deg
RA of node:        91.3821 deg
Eccentricity:    0.0000856
Arg of perigee:    84.5436 deg
Mean anomaly:     275.5860 deg
Mean motion:   14.32242837 rev/day
Decay rate:   -2.6200E-006 rev/day^2
Epoch rev:            4686
Checksum:              430

Satellite: IDEFIX/ARIANE 
Catalog number: 27422
Epoch time:      103022.20515276
Element set:     214 
Inclination:       98.6994 deg
RA of node:       101.5284 deg
Eccentricity:    0.0011985
Arg of perigee:   227.1604 deg
Mean anomaly:     132.8570 deg
Mean motion:   14.27955131 rev/day
Decay rate:    3.3500E-006 rev/day^2
Epoch rev:            3755
Checksum:              286

